Location: Eckley Miners' Village
(40.9930°N, 75.8630°W)
Time: 10:57:39
(UTC-04:00)

Vanguard 1 Rocket - Pass Details

Date: 10 March 2026
Orbit: 654 x 4213 km, 34.3° (Epoch: 11 April)

Event Time Altitude Azimuth Distance (km) Brightness Sun altitude
Rises 07:43:31 0° 210° (SSW) 3,473 10.2 3.0°
Reaches altitude 10° 07:47:47 10° 180° (S) 2,196 9.5 3.8°
Maximum altitude 07:49:42 12° 156° (SSE) 1,954 9.7 4.1°
Drops below altitude 10° 07:51:32 10° 131° (SE) 2,057 10.4 4.5°
Sets 07:55:11 0° 99° (E) 3,008 13.2 5.2°
